Chignik, AK

8:01 AM AKST on February 27, 2017 (GMT -0900)
Chignik

Weather History for PAJC - November, 2013

Change the Weather History Date:

Wednesday, November 20, 2013

  Actual Average Record
Temperature  
Mean Temperature 32 °F -  
Max Temperature 35 °F 38 °F 51 °F (2003)
Min Temperature 28 °F 31 °F 12 °F (2012)
Degree Days  
Heating Degree Days 34    
Moisture  
Dew Point 31 °F    
Average Humidity 96    
Maximum Humidity 100    
Minimum Humidity 87    
Precipitation  
Precipitation 0.71 in - - ()
Sea Level Pressure  
Sea Level Pressure 29.66 in    
Wind  
Wind Speed 4 mph (ENE)    
Max Wind Speed 20 mph    
Max Gust Speed 30 mph    
Visibility 3 miles    
Events      
Averages and records for this station are not official NWS values.
T = Trace of Precipitation, MM = Missing Value Source: NWS Daily Summary

Daily Weather History Graph

Daily Weather History Graph

Search for Another Location

Airport or City:

Trip Planner

Search our weather history database for the weather conditions in past years. The results will help you decide how hot, cold, wet, or windy it might be!

Date:

Astronomy

Nov. 20, 2013 Rise Set
Actual Time 9:22 AM AKST 5:15 PM AKST
Civil Twilight 8:38 AM AKST 5:58 PM AKST
Nautical Twilight 7:51 AM AKST 6:45 PM AKST
Astronomical Twilight 7:07 AM AKST 7:30 PM AKST
Moon 8:09 PM AKST (11/20) 11:56 AM AKST (11/20)
Length of Visible Light 9h 20m
Length of Day
7h 52m
Waning Gibbous, 90% of the Moon is Illuminated
Nov 20
Waning Gibbous
Nov 25
Last Quarter
Dec 2
New
Dec 9
First Quarter
Dec 17
Full

Hourly Weather History & Observations

Time (AKST) Temp. Windchill Dew Point Humidity Pressure Visibility Wind Dir Wind Speed Gust Speed Precip Events Conditions
12:16 AM 28.4 °F - 28.4 °F 100% 29.93 in 2.0 mi Calm Calm - N/A   Overcast
12:36 AM 28.4 °F - 28.4 °F 100% 29.92 in 2.0 mi Calm Calm - N/A   Overcast
12:56 AM 28.4 °F - 26.6 °F 93% 29.90 in 3.0 mi Calm Calm - N/A   Overcast
1:16 AM 28.4 °F - 28.4 °F 100% 29.90 in 2.0 mi Calm Calm - N/A   Overcast
1:36 AM 28.4 °F - 28.4 °F 100% 29.89 in 2.5 mi Calm Calm - N/A   Mostly Cloudy
1:56 AM 28.4 °F - 28.4 °F 100% 29.87 in 2.0 mi Calm Calm - N/A   Overcast
2:16 AM 28.4 °F - 28.4 °F 100% 29.86 in 2.0 mi Calm Calm - N/A   Overcast
2:36 AM 28.4 °F - 28.4 °F 100% 29.85 in 2.5 mi Calm Calm - N/A   Overcast
2:56 AM 28.4 °F - 28.4 °F 100% 29.84 in 2.0 mi Calm Calm - N/A   Overcast
3:16 AM 30.2 °F - 30.2 °F 100% 29.83 in 2.0 mi Calm Calm - N/A   Overcast
3:36 AM 30.2 °F - 30.2 °F 100% 29.81 in 1.8 mi Calm Calm - N/A   Overcast
3:56 AM 30.2 °F - 30.2 °F 100% 29.80 in 2.5 mi Calm Calm - N/A   Overcast
4:16 AM 30.2 °F - 30.2 °F 100% 29.79 in 2.5 mi Calm Calm - N/A   Overcast
4:36 AM 30.2 °F - 30.2 °F 100% 29.78 in 2.0 mi Calm Calm - N/A   Overcast
4:56 AM 30.2 °F - 30.2 °F 100% 29.76 in 1.8 mi Calm Calm - N/A   Overcast
5:16 AM 32.0 °F - 30.2 °F 93% 29.75 in 2.0 mi Calm Calm - N/A   Overcast
5:36 AM 32.0 °F - 32.0 °F 100% 29.74 in 2.5 mi Calm Calm - N/A   Overcast
5:56 AM 32.0 °F - 30.2 °F 93% 29.72 in 2.5 mi Calm Calm - N/A   Overcast
6:16 AM 33.8 °F - 32.0 °F 93% 29.71 in 5.0 mi Calm Calm - N/A   Overcast
6:36 AM 33.8 °F - 32.0 °F 93% 29.70 in 4.0 mi Calm Calm - N/A   Overcast
6:56 AM 32.0 °F - 32.0 °F 100% 29.70 in 3.0 mi Calm Calm - N/A   Overcast
7:16 AM 33.8 °F - 33.8 °F 100% 29.68 in 3.0 mi Calm Calm - N/A   Overcast
7:36 AM 33.8 °F - 32.0 °F 93% 29.68 in 3.0 mi Calm Calm - N/A   Overcast
10:56 AM 35.6 °F 27.5 °F 33.8 °F 93% 29.63 in 5.0 mi ENE 11.5 mph 23.0 mph N/A   Overcast
11:16 AM 35.6 °F 27.5 °F 33.8 °F 93% 29.63 in 6.0 mi ENE 11.5 mph 19.6 mph N/A   Overcast
11:36 AM 35.6 °F 26.2 °F 32.0 °F 87% 29.63 in 8.0 mi ENE 15.0 mph 21.9 mph N/A   Overcast
11:56 AM 33.8 °F 23.2 °F 33.8 °F 100% 29.62 in 5.0 mi ENE 17.3 mph 21.9 mph 0.23 in   Overcast
12:16 PM 33.8 °F 22.8 °F 32.0 °F 93% 29.62 in 4.0 mi NE 18.4 mph 29.9 mph 0.07 in   Overcast
12:36 PM 33.8 °F 22.5 °F 32.0 °F 93% 29.62 in 4.0 mi ENE 19.6 mph 27.6 mph 0.11 in   Overcast
12:56 PM 33.8 °F 23.2 °F 30.2 °F 87% 29.61 in 3.0 mi ENE 17.3 mph 21.9 mph 0.13 in   Overcast
1:16 PM 33.8 °F 23.2 °F 32.0 °F 93% 29.61 in 7.0 mi ENE 17.3 mph 25.3 mph 0.02 in   Overcast
1:36 PM 33.8 °F 23.5 °F 30.2 °F 87% 29.60 in 4.0 mi ENE 16.1 mph 20.7 mph 0.04 in   Overcast
1:56 PM 33.8 °F 24.8 °F 32.0 °F 93% 29.59 in 2.5 mi ENE 12.7 mph 19.6 mph 0.06 in   Overcast
2:16 PM 33.8 °F 26.4 °F 30.2 °F 87% 29.59 in 3.0 mi ENE 9.2 mph - 0.01 in   Overcast
2:36 PM 33.8 °F 28.6 °F 32.0 °F 93% 29.58 in 3.0 mi East 5.8 mph - 0.02 in   Overcast
2:56 PM 33.8 °F 27.7 °F 32.0 °F 93% 29.58 in 1.8 mi ENE 6.9 mph - 0.03 in   Overcast
3:16 PM 32.0 °F 27.5 °F 32.0 °F 100% 29.57 in 1.2 mi ENE 4.6 mph - N/A   Overcast
3:36 PM 32.0 °F 28.7 °F 32.0 °F 100% 29.57 in 1.0 mi NE 3.5 mph - N/A   Overcast
3:56 PM 32.0 °F 26.4 °F 32.0 °F 100% 29.57 in 1.2 mi ENE 5.8 mph - N/A   Overcast
4:16 PM 32.0 °F 28.7 °F 32.0 °F 100% 29.57 in 1.5 mi East 3.5 mph - N/A   Overcast
4:36 PM 32.0 °F 25.6 °F 32.0 °F 100% 29.57 in 1.2 mi East 6.9 mph - N/A   Overcast
4:56 PM 33.8 °F 27.7 °F 32.0 °F 93% 29.57 in 2.0 mi ENE 6.9 mph - N/A   Overcast
5:16 PM 33.8 °F 30.8 °F 32.0 °F 93% 29.57 in 3.0 mi East 3.5 mph - N/A   Overcast
5:36 PM 33.8 °F 27.0 °F 32.0 °F 93% 29.57 in 2.5 mi East 8.1 mph 19.6 mph 0.01 in   Overcast
5:56 PM 33.8 °F 27.7 °F 32.0 °F 93% 29.57 in 3.0 mi ENE 6.9 mph - 0.01 in   Overcast
6:16 PM 32.0 °F 24.2 °F 32.0 °F 100% 29.58 in 2.5 mi ENE 9.2 mph - N/A   Overcast
6:36 PM 33.8 °F 27.0 °F 30.2 °F 87% 29.58 in 3.0 mi ENE 8.1 mph - N/A   Overcast
6:56 PM 33.8 °F 25.3 °F 32.0 °F 93% 29.57 in 3.0 mi ENE 11.5 mph 19.6 mph N/A   Overcast
7:16 PM 33.8 °F 26.4 °F 32.0 °F 93% 29.57 in 4.0 mi NE 9.2 mph 17.3 mph 0.01 in   Overcast
7:36 PM 32.0 °F 24.8 °F 30.2 °F 93% 29.57 in 3.0 mi NE 8.1 mph - 0.01 in   Overcast
7:56 PM 32.0 °F 25.6 °F 32.0 °F 100% 29.57 in 3.0 mi ENE 6.9 mph - 0.01 in   Overcast
8:16 PM 33.8 °F 25.3 °F 30.2 °F 87% 29.57 in 5.0 mi ENE 11.5 mph 17.3 mph N/A   Overcast
8:36 PM 33.8 °F 25.8 °F 32.0 °F 93% 29.57 in 5.0 mi NE 10.4 mph 16.1 mph N/A   Overcast
8:56 PM 33.8 °F 27.0 °F 32.0 °F 93% 29.56 in 4.0 mi NE 8.1 mph - N/A   Overcast
9:16 PM 33.8 °F 26.4 °F 32.0 °F 93% 29.56 in 4.0 mi NE 9.2 mph - N/A   Overcast
9:36 PM 33.8 °F 27.7 °F 32.0 °F 93% 29.56 in 3.0 mi NE 6.9 mph - N/A   Overcast
9:56 PM 33.8 °F 25.3 °F 33.8 °F 100% 29.55 in 4.0 mi NE 11.5 mph 18.4 mph 0.01 in   Overcast
10:16 PM 33.8 °F 25.3 °F 33.8 °F 100% 29.55 in 5.0 mi NE 11.5 mph - 0.02 in   Overcast
10:36 PM 33.8 °F 24.8 °F 33.8 °F 100% 29.54 in 5.0 mi NE 12.7 mph - 0.04 in   Overcast
10:56 PM 33.8 °F 24.3 °F 32.0 °F 93% 29.54 in 9.0 mi NE 13.8 mph 19.6 mph 0.07 in   Overcast
11:16 PM 33.8 °F 22.5 °F 32.0 °F 93% 29.54 in 8.0 mi ENE 19.6 mph 26.5 mph 0.05 in   Overcast
11:36 PM 33.8 °F 22.8 °F 33.8 °F 100% 29.53 in 4.0 mi NE 18.4 mph 25.3 mph 0.10 in   Overcast
11:56 PM 33.8 °F 23.5 °F 33.8 °F 100% 29.53 in 3.0 mi ENE 16.1 mph 27.6 mph 0.16 in   Overcast